Погода в Писсури

Кипр     34°39′56″N   32°42′12″E
темп.,
°C
ветер,
м/с
пор.,
м/с
влажн.,
%
обл.,
%
осадки,
мм/ч
давл.,
гПа
погр.,
м
23 января, сб
сб2323:00+7св337099 0.0 102636
02:00+7ссв226399 0.0 102432
05:00+6св336297 0.0 102436
08:00+8ссв336498 0.0 102450
11:00+12юз214515 0.0 1024752
14:00+13юз33528 0.0 1022650
17:00+10зюз34690 0.0 102166
20:00+8ссз11800 0.0 102253
24 января, вс
вс2423:00+7св22803 0.0 102232
02:00+6с127647 0.0 102131
05:00+6ссз127294 0.0 102132
08:00+8всв126397 0.0 102237
11:00+12ююз1149100 0.0 1022820
14:00+13юз325061 0.0 1021927
17:00+11зюз23710 0.0 102156
20:00+8всв118216 0.0 102236
25 января, пн
пн2523:00+7св12820 0.0 102133
02:00+7с12820 0.0 102132
05:00+7св23710 0.0 102130
08:00+9св126934 0.0 102239
11:00+13ююз115625 0.0 1022716
14:00+14юз336013 0.0 1021735
17:00+11зюз237478 0.0 102168
20:00+9ссз118487 0.0 102236
26 января, вт
вт2623:00+9всв1184100 0.0 102243
02:00+8всв1284100 0.0 102131
05:00+8всв128398 0.0 102034
08:00+10всв127571 0.0 102137
11:00+14юв225831 0.0 1020503
14:00+14ююв226066 0.0 1019524
17:00+12юв1278100 0.0 101831
20:00+11в2377100 0.0 101847
27 января, ср
ср2723:00+10в2270100 0.0 101741
02:00+10в2269100 0.0 101442
05:00+10в2366100 0.0 101144
08:00+11вюв2368100 0.0 101081
11:00+13ююв6874100 0.4 1007892
14:00+11юз101497100 7.3 1005839
17:00+11з101481100 3.4 1004902
20:00+11з11157593 4.3 1006921